[[{"header":{"parameterUnit":"m.s-1","parameterCategory":1,"la1":30.2991,"la2":30.254,"lo1":-89.0895,"lo2":-89.0444,"dy":0.0017,"dx":0.0017,"nx":28,"ny":28,"refTime":"2025-08-13T21:00:00:Z","depth":0,"parameterNumber":2,"parameterNumberName":"U-component_of_WINDS"},"data":[0,0,0,0,0,0,0,0,0,0,0,0,0,0,0,0,0,0,0,0,0,0,0,0,0,0,0,0,0,0,0,0,0,0,0,0,0,0,0,0,0,0,0,0,0,0,0,0,0,0,0,0,0,0,0,0,0,0,4.3206,4.3208,0,4.3351,4.3353,4.3354,4.3292,4.3288,4.3285,4.3282,4.3433,4.344,4.3447,0,0,0,0,0,0,0,0,0,0,0,0,0,4.2877,4.2883,4.3206,4.3208,4.321,4.3351,4.3353,4.3355,4.3293,4.3288,4.3284,4.328,4.343,4.3439,4.3448,0,0,0,0,0,0,0,0,0,0,0,0,0,4.3021,4.2886,4.3206,4.3196,4.3196,4.335,4.3353,4.3355,4.3294,4.3288,4.3283,4.3278,4.3427,4.3438,4.3449,4.3622,0,0,4.3482,4.3487,0,0,0,0,0,0,0,0,4.3013,4.3033,4.3195,4.3197,4.3197,4.3298,4.3292,4.3445,4.3295,4.3257,4.3282,4.3275,4.3392,4.3406,4.3445,4.3629,4.3636,4.3483,4.349,4.3495,4.3498,0,0,0,0,0,0,0,4.3003,4.3026,4.3263,4.3198,4.3199,4.3184,4.3199,4.3321,4.3352,4.326,4.3255,4.3273,4.3392,4.3434,4.3448,4.3638,4.3483,4.3493,4.3499,4.3504,4.397,4.3975,0,0,0,0,0,0,4.2993,4.3019,4.3259,4.3268,4.309,4.3195,4.3211,4.3271,4.3351,4.3358,4.3278,4.327,4.3418,4.3435,4.3453,4.3659,4.3495,4.3505,4.3511,4.3964,4.3971,4.3977,0,0,0,0,0,0,4.2986,4.3015,4.3253,4.3142,4.3171,4.3206,4.3274,4.3277,4.3319,4.3364,4.337,4.3315,4.3415,4.3437,4.358,4.3664,4.351,4.352,4.3957,4.3966,4.3974,4.4075,0,0,0,0,0,0,4.2977,4.3013,4.3079,4.3144,4.3177,4.3378,4.3279,4.3283,4.3338,4.3329,4.3401,4.3408,4.3412,4.3564,4.3591,4.3676,4.3528,4.395,4.3961,4.3972,4.4064,4.4086,4.4104,0,0,0,0,0,4.2965,4.3102,4.3082,4.3112,4.3261,4.3383,4.3402,4.3403,4.3345,4.3411,4.344,4.3406,4.365,4.3579,4.3609,4.3699,4.3945,4.3958,4.3971,4.4055,4.4082,4.4104,0,0,0,0,0,0,4.3047,4.3111,4.3089,4.3252,4.3312,4.3372,4.3456,4.3431,4.351,4.3499,4.3498,4.3515,4.3662,4.3695,4.3614,4.3869,4.3789,4.3808,4.3843,4.3868,4.3888,4.3877,4.3537,0,0,0,0,0,4.3084,4.3177,4.3228,4.3366,4.3397,4.3422,4.3475,4.347,4.3533,4.3559,4.3598,4.3661,4.3752,4.3812,4.3898,4.4069,4.4083,4.4145,4.4165,4.4182,4.4198,4.4289,4.4317,4.402,4.402,4.402,0,0,4.3161,4.3207,4.3267,4.3384,4.343,4.3526,4.3444,4.355,4.3621,4.3575,4.3711,4.3743,4.3813,4.3969,4.404,4.4001,4.4283,4.4198,4.4211,4.4219,4.4305,4.4333,4.4358,4.4029,4.4028,4.4026,0,0,4.3351,4.3396,4.3515,4.3563,4.3633,4.3648,4.3677,4.374,4.3759,4.3895,4.3862,4.3947,4.4105,4.4155,4.4202,4.4409,4.4379,4.4437,4.4542,4.4631,4.4654,4.4675,4.4747,4.4773,4.4454,4.4454,4.4454,0,4.3438,4.3582,4.358,4.3688,4.374,4.3701,4.3821,4.3868,4.3964,4.4001,4.3955,4.415,4.4195,4.4362,4.4412,4.4452,4.4484,4.4429,4.4651,4.4671,4.4691,4.476,4.4787,4.4461,4.446,4.4459,4.4459,0,4.3685,4.3785,4.3873,4.3964,4.4026,4.414,4.4155,4.4218,4.4208,4.4228,4.4367,4.4419,4.4514,4.4554,4.4546,4.472,4.4693,4.465,4.4568,4.4725,4.479,4.4817,4.447,4.4468,4.4466,4.4464,0,0,4.3931,4.4018,4.405,4.409,4.4165,4.4242,4.4354,4.4446,4.4499,4.4567,4.466,4.4793,4.4752,4.4805,4.4803,4.4881,4.5039,4.4827,4.4829,4.4864,4.5232,4.5263,4.5294,4.502,4.5026,4.503,4.5225,0,4.4125,4.4319,4.432,4.45,4.4591,4.4555,4.4652,4.4709,4.473,4.4811,4.4835,4.4928,4.4869,4.49,4.4976,4.5004,4.5113,4.499,4.5107,4.5111,4.5089,4.5328,4.5362,4.5544,4.5251,4.5255,4.5258,0,4.4377,4.445,4.4639,4.4698,4.4736,4.4824,4.4907,4.4985,4.5048,4.5058,4.5116,4.5101,4.5214,4.513,4.5286,4.5202,4.525,4.5271,4.5278,4.5288,4.5193,4.5343,4.5602,4.5629,4.5299,4.5295,4.5292,0,4.4535,4.4682,4.4812,4.4848,4.4921,4.4983,4.5016,4.5074,4.5128,4.5202,4.5237,4.5323,4.537,4.5437,4.5446,4.5384,4.5602,4.5519,4.5613,4.5613,4.566,4.5656,4.5929,4.5693,4.5693,4.5692,4.5692,0,4.4751,4.4867,4.4884,4.4965,4.5093,4.5093,4.5221,4.5249,4.53,4.5385,4.5361,4.5441,4.5448,4.5532,4.5539,4.5666,4.5689,4.5699,4.57,4.5701,4.5699,4.5731,4.5718,4.57,4.5698,4.5697,4.5695,0,4.4949,4.4965,4.5105,4.5162,4.5179,4.5272,4.532,4.5397,4.5415,4.5523,4.5549,4.5578,4.5674,4.569,4.5804,4.5809,4.596,4.5949,4.5939,4.5936,4.6029,4.6019,4.633,4.637,4.611,4.6113,4.6115,0,4.5085,4.5173,4.5239,4.5294,4.533,4.5419,4.5474,4.5477,4.5535,4.5612,4.568,4.5773,4.5848,4.6003,4.6035,4.6121,4.611,4.6213,4.6123,4.6121,4.611,4.6104,4.6112,4.623,4.6233,4.6236,4.6238,0,4.5324,4.5327,4.5407,4.549,4.5555,4.5621,4.5683,4.5729,4.574,4.5807,4.5904,4.5962,4.6077,4.617,4.6255,4.629,4.6266,4.6266,4.6292,4.6293,4.6283,4.6288,4.5984,4.6258,4.6256,4.6255,4.6254,4.6253,4.5494,4.557,4.5628,4.5717,4.5763,4.5821,4.5895,4.5922,4.6003,4.6096,4.6093,4.62,4.6259,4.6371,4.6411,4.6495,4.6461,4.65,4.6509,4.6518,4.6526,4.6271,4.6511,4.651,4.6509,4.6509,4.6509,0,4.573,4.5765,4.5847,4.5933,4.6003,4.5974,4.604,4.6101,4.6194,4.6251,4.6325,4.6436,4.6525,4.6563,4.6651,4.671,4.6702,4.6733,4.6728,4.6736,4.6552,4.6519,4.6739,4.6739,4.6739,4.6739,4.6739,4.6739,4.5861,4.5987,4.5997,4.6146,4.618,4.6283,4.6323,4.6376,4.6421,4.6546,4.662,4.6643,4.6693,4.6784,4.6864,4.6873,4.6906,4.6942,4.6946,4.6773,4.675,4.6727,4.6697,4.695,4.695,4.7124,4.7125,4.7126]},{"header":{"parameterUnit":"m.s-1","parameterCategory":1,"la1":30.2991,"la2":30.254,"lo1":-89.0895,"lo2":-89.0444,"dy":0.0017,"dx":0.0017,"nx":28,"ny":28,"refTime":"2025-08-13T21:00:00:Z","depth":0,"parameterNumber":3,"parameterNumberName":"V-component_of_WINDS"},"data":[0,0,0,0,0,0,0,0,0,0,0,0,0,0,0,0,0,0,0,0,0,0,0,0,0,0,0,0,0,0,0,0,0,0,0,0,0,0,0,0,0,0,0,0,0,0,0,0,0,0,0,0,0,0,0,0,0,0,1.4509,1.451,0,1.4594,1.4595,1.4596,1.4589,1.4588,1.4587,1.4585,1.4672,1.4675,1.4679,0,0,0,0,0,0,0,0,0,0,0,0,0,1.434,1.4343,1.4509,1.451,1.4511,1.4594,1.4595,1.4596,1.4589,1.4588,1.4586,1.4585,1.4671,1.4675,1.4679,0,0,0,0,0,0,0,0,0,0,0,0,0,1.4418,1.4344,1.4509,1.4518,1.4519,1.4593,1.4595,1.4596,1.459,1.4588,1.4586,1.4584,1.4669,1.4674,1.468,1.475,0,0,1.4696,1.4698,0,0,0,0,0,0,0,0,1.4414,1.4424,1.4515,1.4517,1.4519,1.4579,1.4567,1.4648,1.459,1.4563,1.4585,1.4583,1.4642,1.465,1.467,1.4754,1.4758,1.4696,1.4699,1.4701,1.4703,0,0,0,0,0,0,0,1.4408,1.442,1.4542,1.4517,1.4519,1.4517,1.4526,1.4582,1.4612,1.4565,1.4565,1.4575,1.4643,1.4665,1.4672,1.4759,1.4696,1.4701,1.4704,1.4706,1.4904,1.4906,0,0,0,0,0,0,1.4401,1.4416,1.454,1.4545,1.4461,1.4522,1.4532,1.4562,1.4612,1.4618,1.4577,1.4574,1.4657,1.4666,1.4675,1.476,1.4701,1.4706,1.4709,1.4902,1.4905,1.4907,0,0,0,0,0,0,1.4397,1.4412,1.4536,1.448,1.4496,1.4527,1.456,1.4564,1.4586,1.462,1.4626,1.4593,1.4656,1.4668,1.4731,1.4763,1.4709,1.4713,1.49,1.4903,1.4906,1.4932,0,0,0,0,0,0,1.4392,1.4411,1.4438,1.4481,1.4499,1.4592,1.4562,1.4567,1.4595,1.4593,1.4637,1.4643,1.4655,1.4723,1.4736,1.477,1.4718,1.4897,1.4901,1.4905,1.4929,1.4936,1.4942,0,0,0,0,0,1.4386,1.4442,1.4439,1.4454,1.4534,1.4594,1.4604,1.4617,1.4598,1.4625,1.4647,1.4642,1.4757,1.473,1.4745,1.478,1.4895,1.49,1.4905,1.4926,1.4934,1.4942,0,0,0,0,0,0,1.4402,1.4448,1.4446,1.4517,1.4551,1.4592,1.4628,1.4626,1.4666,1.4663,1.4677,1.4687,1.4751,1.4772,1.474,1.485,1.4824,1.4832,1.4835,1.4843,1.485,1.4844,1.4722,0,0,0,0,0,1.4414,1.4459,1.4496,1.4555,1.4573,1.4597,1.4624,1.463,1.4667,1.4681,1.4708,1.4743,1.4787,1.4816,1.4859,1.4931,1.494,1.4962,1.4969,1.4974,1.4981,1.5021,1.5031,1.4923,1.4923,1.4923,0,0,1.4439,1.4469,1.4497,1.4559,1.4587,1.4632,1.461,1.4659,1.4693,1.4689,1.4751,1.4771,1.4811,1.4879,1.4911,1.4899,1.5013,1.4981,1.4985,1.4989,1.5027,1.5037,1.5046,1.4926,1.4926,1.4925,0,0,1.4507,1.4535,1.4587,1.4615,1.4657,1.4673,1.4685,1.4726,1.474,1.4802,1.48,1.484,1.4916,1.4945,1.4969,1.5048,1.5044,1.5061,1.5096,1.5135,1.5143,1.5151,1.5179,1.5188,1.5067,1.5068,1.5068,0,1.4533,1.4602,1.4614,1.4664,1.4692,1.4689,1.4742,1.4769,1.4822,1.4841,1.4826,1.4922,1.4948,1.5023,1.5042,1.5062,1.5076,1.5056,1.5141,1.5149,1.5156,1.5183,1.5193,1.5069,1.5069,1.5069,1.5069,0,1.4631,1.4679,1.4716,1.4768,1.4799,1.4851,1.487,1.49,1.4904,1.4921,1.4984,1.5016,1.5065,1.5083,1.5088,1.5158,1.5149,1.5138,1.5112,1.5168,1.5193,1.5203,1.5072,1.5071,1.5071,1.507,0,0,1.4713,1.4771,1.4784,1.4807,1.4853,1.489,1.494,1.4988,1.5014,1.5051,1.5093,1.5157,1.5146,1.5174,1.5181,1.5215,1.5274,1.5199,1.52,1.5212,1.5354,1.5363,1.5375,1.5272,1.5274,1.5275,1.5351,0,1.4787,1.4877,1.4889,1.4968,1.5012,1.5011,1.5054,1.5087,1.5104,1.5143,1.5162,1.5207,1.519,1.5206,1.5239,1.526,1.5303,1.5255,1.5311,1.5313,1.5302,1.5388,1.5398,1.5468,1.5361,1.5363,1.5364,0,1.4885,1.4924,1.5008,1.5047,1.5066,1.5105,1.515,1.5188,1.5224,1.5234,1.5265,1.5267,1.5319,1.529,1.5362,1.5328,1.5352,1.5366,1.5369,1.5375,1.5342,1.5397,1.549,1.5501,1.538,1.5378,1.5377,0,1.4936,1.501,1.507,1.509,1.5137,1.5164,1.5185,1.522,1.5247,1.5286,1.5304,1.5348,1.5372,1.5406,1.542,1.5398,1.5491,1.5463,1.55,1.55,1.5521,1.5519,1.562,1.5535,1.5535,1.5535,1.5535,0,1.5017,1.5069,1.5094,1.513,1.5188,1.5201,1.5257,1.5277,1.5307,1.5347,1.5348,1.5386,1.5402,1.5442,1.5454,1.5511,1.5522,1.5531,1.5534,1.5531,1.553,1.5548,1.5543,1.5538,1.5537,1.5536,1.5536,0,1.5085,1.5104,1.5169,1.5207,1.5218,1.5259,1.5292,1.5327,1.5343,1.5394,1.5407,1.5432,1.548,1.5497,1.5554,1.5562,1.5628,1.5627,1.5616,1.5617,1.5653,1.565,1.5768,1.5785,1.5689,1.569,1.5691,0,1.5136,1.5175,1.5218,1.5245,1.5267,1.531,1.5339,1.5352,1.5382,1.5426,1.5456,1.5503,1.5541,1.5616,1.564,1.5683,1.5683,1.5721,1.5689,1.5686,1.5684,1.5681,1.5685,1.5728,1.5729,1.5729,1.573,0,1.5224,1.5231,1.5272,1.5316,1.5349,1.5385,1.5419,1.5441,1.546,1.5492,1.5541,1.557,1.5629,1.5675,1.572,1.5741,1.5739,1.574,1.5751,1.5749,1.5741,1.5746,1.5633,1.5737,1.5736,1.5736,1.5735,1.5735,1.5285,1.532,1.5355,1.54,1.5427,1.5459,1.5494,1.5515,1.5555,1.5604,1.5609,1.5661,1.5696,1.5755,1.5778,1.5819,1.5808,1.5824,1.5828,1.5832,1.5835,1.5734,1.5827,1.5826,1.5826,1.5826,1.5826,0,1.5373,1.5395,1.5437,1.5485,1.552,1.5515,1.5552,1.5582,1.5628,1.566,1.5698,1.5753,1.5798,1.5824,1.5869,1.5896,1.5896,1.5907,1.5906,1.5911,1.5841,1.5828,1.5907,1.5907,1.5907,1.5907,1.5907,1.5907,1.5423,1.5482,1.5493,1.5565,1.5587,1.5638,1.5659,1.5688,1.5714,1.5776,1.5813,1.583,1.586,1.5907,1.5948,1.5954,1.5971,1.5983,1.5989,1.5924,1.5916,1.5908,1.5895,1.5987,1.5987,1.6055,1.6055,1.6056]}]]